Vorticity
4 3 5 3 1 6 5 4 8 6 13 8 9 11 11 10 9 7 7 7 9 9 7 7 7 3 3 3 6 6 9 10 0 4 8 8 6 3 2 16 8 5 13 14 8
5 5 2 5 -0 -0 1 1 4 4 7 8 7 11 10 10 8 7 6 8 9 6 8 8 5 4 1 3 5 5 9 7 3 4 6 9 4 2 2 20 7 7 10 7 2
4 4 6 6 4 3 2 4 4 6 8 8 7 8 8 8 7 9 8 8 7 6 7 6 6 4 2 4 3 6 8 7 3 5 8 6 6 4 5 24 6 6 12 7 5
8 2 5 5 3 2 6 5 5 5 8 4 3 8 8 10 7 7 8 6 6 7 4 6 5 4 2 6 3 8 9 5 2 6 6 5 7 4 15 11 10 10 7 4 10
12 5 5 2 6 4 6 4 8 5 8 7 10 3 8 11 9 8 10 7 6 5 3 3 3 4 5 6 5 8 4 5 4 6 5 6 5 4 14 14 12 9 6 6 5
8 7 3 2 0 6 7 8 9 8 12 9 4 5 4 16 8 13 8 8 7 7 2 2 4 3 5 5 6 6 4 5 7 9 6 4 6 8 4 19 9 5 3 10 0
1 5 8 9 12 4 3 6 9 13 16 13 9 9 7 8 9 11 10 10 9 5 5 5 4 3 4 6 6 7 3 4 10 5 6 6 9 9 1 14 10 9 11 8 3
7 11 7 14 14 11 13 14 11 6 8 13 11 12 12 10 8 11 9 10 10 7 6 7 5 5 5 4 7 7 5 3 6 3 9 9 7 3 2 10 16 4 9 10 6
4 12 9 11 15 13 14 14 16 15 11 10 9 8 11 12 9 14 12 2 8 9 13 9 7 4 6 7 4 11 10 5 4 -0 7 8 4 0 7 4 13 5 5 16 12
21 14 13 18 11 10 14 10 9 11 11 9 13 12 11 18 8 17 20 4 9 10 6 4 4 2 5 6 5 15 5 4 5 3 4 7 5 4 7 4 22 8 11 13 4
12 13 16 14 15 13 11 10 14 8 15 7 7 7 18 12 15 28 6 28 4 12 8 8 5 4 18 11 3 9 5 3 5 3 6 5 6 6 6 7 17 11 14 7 3
11 12 11 9 14 14 12 12 15 12 21 23 13 16 10 8 8 9 11 9 13 4 19 9 4 8 7 7 6 8 8 8 4 5 5 5 5 6 4 9 14 0 22 10 3
8 10 13 10 7 17 13 12 12 5 22 26 13 19 12 12 20 -2 8 2 8 7 6 11 9 9 11 7 6 7 7 9 5 3 2 4 8 10 11 14 16 16 7 -0 11
5 7 10 4 24 13 13 34 24 23 15 16 14 5 10 9 12 4 10 12 5 1 6 8 5 8 10 9 9 8 12 7 5 3 4 5 7 16 12 9 17 12 3 4 8
4 4 7 12 14 9 10 9 17 8 8 15 7 22 13 21 19 9 0 3 11 11 9 13 8 6 6 11 11 11 5 4 4 1 6 7 3 4 12 16 16 1 2 10 6
8 7 7 9 16 5 10 9 -2 3 10 15 18 22 17 15 11 15 19 13 1 4 5 9 5 9 11 7 10 8 6 4 3 4 5 8 4 28 21 13 19 2 11 17 7
12 9 7 7 3 2 5 -1 16 13 -2 16 10 10 3 5 5 3 9 15 20 14 7 7 5 6 4 4 7 9 9 3 2 3 1 7 6 -4 17 9 20 5 4 9 6
9 10 11 7 4 3 11 -2 9 5 5 -0 3 0 4 7 9 10 12 11 9 15 11 14 12 6 7 4 9 9 10 8 6 6 5 5 10 -0 26 6 21 9 5 3 7
17 11 13 12 9 11 7 7 2 4 2 4 8 5 7 8 9 9 8 6 8 10 4 11 12 11 7 9 0 4 3 9 9 5 4 4 5 9 24 4 2 21 6 5 8
22 16 11 14 12 12 8 5 5 4 7 2 3 5 5 5 7 7 9 11 8 6 7 10 8 9 9 10 8 9 3 8 3 4 4 3 4 8 11 17 2 20 15 4 -4
18 18 9 10 13 11 8 8 4 5 7 5 4 4 5 5 5 7 6 5 7 9 8 7 7 6 10 11 13 13 10 6 7 2 4 6 4 8 11 13 8 14 6 14 21
16 21 2 10 8 13 15 4 8 7 9 8 7 6 5 6 9 9 7 9 6 5 12 12 11 10 8 10 9 7 8 7 6 6 7 7 9 0 6 14 18 7 6 7 -1
19 19 7 13 10 9 13 12 10 7 7 8 8 7 6 12 16 18 15 14 14 12 12 13 12 10 12 9 11 12 17 13 12 4 2 3 2 2 4 19 1 12 7 7 3
14 21 13 11 11 8 7 10 11 9 9 12 10 12 18 23 23 14 17 15 15 19 14 18 16 15 16 11 3 4 14 22 8 -3 8 6 3 5 0 21 4 21 8 6 6
12 20 18 14 14 11 10 10 11 11 12 18 14 30 19 13 16 20 17 17 3 3 14 17 19 30 12 19 12 26 3 8 12 16 -0 8 7 5 8 29 3 13 10 8 1
17 22 17 15 14 9 17 16 18 24 24 28 27 9 1 6 17 16 13 15 5 -3 13 23 19 -19 30 3 24 8 19 12 11 14 7 5 5 5 12 -7 20 3 10 8 4
22 24 17 10 15 17 17 20 31 18 25 16 3 7 2 7 10 13 17 -1 2 16 -5 44 2 10 8 9 12 16 8 13 8 10 7 5 12 7 9 7 31 3 7 4 5
Height
5776 5777 5778 5778 5779 5780 5780 5781 5781 5781 5783 5783 5784 5786 5786 5788 5789 5788 5789 5790 5791 5791 5791 5792 5794 5794 5794 5793 5791 5790 5791 5788 5785 5783 5782 5780 5779 5776 5774 5769 5766 5765 5764 5763 5761
5767 5767 5767 5768 5770 5770 5771 5771 5773 5772 5774 5774 5775 5775 5777 5780 5782 5780 5782 5781 5783 5783 5786 5786 5786 5787 5788 5787 5786 5786 5786 5782 5781 5778 5778 5776 5774 5772 5770 5765 5762 5761 5760 5759 5757
5756 5755 5756 5756 5757 5758 5759 5760 5762 5765 5765 5765 5765 5768 5769 5770 5774 5773 5773 5773 5775 5777 5778 5779 5779 5781 5781 5780 5780 5781 5781 5777 5777 5773 5773 5773 5770 5767 5765 5762 5758 5757 5756 5755 5753
5745 5744 5744 5744 5745 5746 5746 5748 5750 5753 5755 5757 5757 5758 5760 5762 5764 5766 5765 5766 5767 5769 5771 5772 5772 5774 5774 5774 5774 5776 5775 5773 5773 5768 5766 5767 5766 5764 5762 5756 5753 5752 5751 5751 5749
5732 5733 5733 5733 5732 5733 5733 5735 5738 5741 5743 5745 5748 5749 5750 5753 5757 5753 5756 5757 5759 5761 5763 5765 5766 5766 5767 5769 5768 5771 5770 5769 5768 5764 5760 5761 5761 5759 5756 5750 5749 5749 5748 5747 5745
5718 5719 5719 5718 5720 5719 5721 5722 5725 5728 5731 5734 5735 5738 5742 5744 5742 5742 5745 5747 5750 5753 5755 5757 5759 5758 5760 5763 5763 5764 5764 5764 5763 5760 5756 5757 5755 5754 5750 5747 5746 5745 5744 5744 5742
5703 5705 5704 5704 5705 5705 5707 5709 5712 5712 5718 5721 5723 5725 5730 5738 5729 5732 5735 5737 5740 5743 5747 5749 5750 5751 5754 5757 5758 5758 5758 5759 5757 5754 5751 5753 5753 5750 5747 5745 5743 5740 5740 5739 5737
5689 5690 5690 5689 5689 5690 5694 5695 5697 5702 5706 5708 5710 5712 5716 5720 5716 5720 5722 5729 5731 5734 5738 5739 5740 5743 5747 5749 5752 5751 5753 5754 5750 5746 5746 5749 5751 5746 5743 5743 5740 5737 5736 5735 5734
5674 5675 5675 5676 5676 5676 5679 5681 5684 5688 5690 5695 5699 5700 5705 5705 5705 5708 5713 5718 5721 5725 5728 5729 5731 5736 5739 5743 5745 5746 5748 5747 5745 5741 5741 5741 5745 5741 5739 5738 5736 5734 5731 5731 5730
5661 5661 5661 5661 5660 5663 5665 5668 5670 5675 5678 5682 5686 5691 5692 5694 5695 5697 5701 5705 5710 5714 5717 5720 5724 5727 5730 5738 5740 5738 5738 5739 5741 5738 5735 5734 5739 5738 5735 5734 5732 5730 5728 5727 5727
5648 5647 5648 5648 5647 5650 5653 5656 5659 5662 5666 5669 5674 5678 5679 5681 5684 5688 5690 5692 5697 5703 5707 5712 5714 5717 5729 5729 5727 5729 5730 5732 5737 5732 5730 5729 5731 5732 5730 5729 5727 5726 5725 5724 5724
5635 5635 5635 5636 5637 5638 5641 5643 5646 5649 5655 5657 5660 5665 5668 5668 5675 5678 5682 5684 5687 5694 5698 5702 5704 5716 5716 5718 5719 5722 5724 5730 5731 5727 5721 5724 5725 5727 5725 5724 5722 5722 5722 5721 5719
5621 5621 5624 5627 5627 5627 5629 5632 5635 5638 5642 5653 5650 5652 5657 5658 5666 5672 5673 5677 5681 5683 5690 5694 5700 5702 5705 5710 5711 5716 5717 5725 5722 5718 5716 5717 5719 5722 5722 5720 5719 5718 5719 5717 5715
5609 5611 5613 5616 5619 5618 5619 5622 5625 5630 5630 5639 5641 5641 5646 5651 5656 5663 5662 5668 5671 5678 5681 5683 5689 5695 5699 5702 5706 5708 5714 5712 5713 5711 5712 5710 5712 5718 5718 5717 5716 5715 5716 5714 5711
5594 5597 5600 5605 5608 5608 5614 5615 5619 5623 5621 5627 5632 5635 5639 5646 5649 5654 5657 5658 5665 5670 5675 5679 5684 5686 5689 5694 5697 5703 5702 5704 5704 5704 5703 5709 5706 5715 5714 5712 5711 5711 5711 5711 5709
5577 5581 5587 5594 5595 5600 5605 5607 5613 5617 5613 5617 5622 5627 5631 5635 5639 5642 5647 5650 5654 5658 5664 5668 5673 5678 5681 5686 5688 5691 5694 5696 5698 5697 5693 5707 5702 5710 5708 5705 5706 5707 5708 5709 5707
5559 5565 5573 5580 5583 5591 5594 5599 5604 5604 5608 5612 5614 5619 5623 5626 5630 5634 5639 5644 5645 5649 5655 5661 5665 5670 5673 5676 5681 5683 5689 5691 5690 5689 5692 5699 5692 5704 5705 5702 5703 5704 5705 5706 5705
5540 5547 5557 5566 5571 5577 5581 5588 5593 5597 5601 5604 5607 5611 5614 5618 5622 5625 5629 5633 5637 5642 5645 5651 5656 5660 5666 5670 5675 5678 5682 5682 5681 5685 5687 5688 5683 5698 5698 5697 5699 5701 5701 5703 5702
5521 5532 5543 5550 5556 5562 5568 5575 5583 5589 5593 5597 5599 5600 5605 5608 5612 5615 5618 5623 5627 5632 5635 5639 5644 5649 5655 5660 5664 5668 5671 5680 5678 5677 5677 5678 5680 5691 5694 5694 5693 5695 5697 5698 5699
5506 5515 5530 5534 5541 5547 5555 5565 5570 5577 5582 5588 5591 5593 5594 5597 5600 5603 5607 5613 5618 5622 5625 5629 5634 5640 5643 5649 5654 5656 5663 5666 5666 5666 5668 5670 5673 5685 5688 5686 5688 5693 5693 5694 5696
5492 5501 5517 5522 5526 5532 5545 5554 5559 5566 5571 5577 5582 5584 5585 5587 5589 5592 5597 5602 5607 5611 5616 5620 5623 5630 5634 5639 5645 5649 5652 5656 5659 5660 5663 5664 5666 5679 5680 5682 5683 5686 5688 5690 5692
5481 5490 5505 5507 5513 5521 5533 5543 5550 5555 5559 5565 5569 5573 5576 5578 5581 5584 5590 5591 5596 5600 5604 5610 5613 5617 5625 5629 5633 5638 5643 5645 5649 5652 5655 5658 5661 5671 5673 5676 5678 5680 5684 5686 5688
5471 5481 5490 5494 5498 5513 5522 5530 5538 5544 5549 5553 5558 5563 5564 5567 5572 5574 5579 5582 5584 5589 5594 5599 5603 5607 5614 5621 5623 5628 5632 5635 5639 5643 5645 5648 5651 5660 5667 5667 5672 5675 5678 5680 5682
5463 5468 5476 5481 5491 5501 5510 5518 5527 5533 5536 5542 5548 5552 5555 5557 5560 5565 5569 5573 5575 5577 5584 5587 5592 5597 5602 5610 5614 5618 5625 5629 5632 5635 5641 5643 5647 5653 5662 5663 5664 5669 5671 5674 5676
5450 5457 5466 5473 5483 5493 5500 5509 5515 5520 5526 5531 5537 5543 5546 5550 5554 5557 5561 5564 5569 5571 5574 5579 5582 5586 5592 5598 5603 5609 5611 5617 5621 5629 5629 5637 5638 5643 5654 5655 5657 5662 5663 5665 5669
5442 5448 5457 5466 5475 5482 5489 5499 5505 5510 5517 5524 5530 5536 5540 5546 5548 5548 5550 5555 5560 5566 5568 5572 5574 5580 5586 5590 5593 5597 5603 5608 5614 5618 5621 5625 5628 5633 5643 5646 5649 5652 5656 5657 5660
5437 5443 5450 5458 5465 5473 5480 5490 5498 5503 5510 5517 5524 5530 5536 5539 5537 5542 5545 5550 5556 5560 5563 5565 5570 5574 5581 5583 5581 5584 5593 5598 5605 5610 5615 5618 5623 5625 5632 5637 5640 5642 5644 5649 5653